Location: Kershaw
(34.5481°N, 80.5823°W)
Time: 19:26:36
(UTC+00:00)

Transit 4A - Pass Details

Date: 04 October 2022
Orbit: 871 x 972 km, 66.8° (Epoch: 01 December)

Event Time Altitude Azimuth Distance (km) Brightness Sun altitude
Rises 01:46:56 0° 178° (S) 3,621 - -34.0°
Reaches altitude 10° 01:49:46 10° 168° (SSE) 2,667 - -34.5°
Maximum altitude 01:55:09 31° 108° (ESE) 1,569 - -35.5°
Drops below altitude 10° 02:00:25 10° 48° (NE) 2,621 - -36.5°
Sets 02:03:10 0° 38° (NE) 3,550 - -37.1°
